User: anonymous   Login
Location: Saint-Usage
(47.1052°N, 5.2587°E)
Time: 20:21:51
(UTC+01:00)
Language:

CUTE-I - Orbit

View from above orbital plane
View from above orbital plane
View from above satellite
View from above satellite

Ground track
Ground track

The orbit data is extracted from the following two-line orbital elements,

1 27844U 03031E   21340.82589789  .00000083  00000-0  57089-4 0  9992
2 27844  98.6803 346.4288 0008975 303.3201  56.7117 14.22356317956480
Epoch (UTC): 06 December 2021 19:49:17
Eccentricity: 0.0008975
inclination: 98.6803°
perigee height: 811 km
apogee height: 824 km
right ascension of ascending node: 346.4288°
argument of perigee: 303.3201°
revolutions per day: 14.22356317
mean anomaly at epoch: 56.7117°
orbit number at epoch: 95648

The dashed part of the orbit path shows where the satellite is in the earth's shadow,  

DLR